Location: Unspecified
(0.0000°N, 0.0000°E)
Time: 03:18:18
(UTC+00:00)

Altair - Pass Details

Date: 03 February 2021
Orbit: 1501 x 1682 km, 47.2° (Epoch: 24 February)

Event Time Altitude Azimuth Distance (km) Brightness Sun altitude
Rises 22:06:16 0° 206° (SSW) 4,641 10.4 -54.6°
Reaches altitude 10° 22:09:29 10° 200° (SSW) 3,669 9.7 -55.3°
Enters shadow 22:10:44 15° 196° (SSW) 3,306 9.4 -55.6°
